Find STARLINK-37463

NORAD ID: 68854 Int'l Des: 2026-094R Owner: SPXS Country: US Constellation: starlink operational
LEOCIRCULARRETROGRADE

現在のビュー

3D地球を読み込み中...

About STARLINK-37463

STARLINK-37463 (NORAD 68854) is a starlink constellation satellite (v2 mini) launched Apr 26, 2026 by SPXS of US. It operates in LEO, CIRCULAR, RETROGRADE orbit with a mass of 575.00 kg.

STARLINK-37463について

説明を読み込み中...

次回通過

Passes for default location (London). Set your location on the main map for personalized predictions.

高度履歴

Loading altitude history...

軌道要素

1 68854U 26094R 26166.95219347 .00014181 00000-0 44063-3 0 9998
2 68854 97.2826 181.4815 0001799 94.3383 265.8066 15.33454130 7864
Epoch: Jun 15, 2026 • Age: 11 hours

現在のステータス

高度 477.2 km
速度 7.63 km/s
衛星直下点 75.43°N, 95.71°E
打ち上げ日 Apr 26, 2026
運用期間 0.1 years
タイプ internet

技術仕様

分類 Payload
質量 575.00 kg
乾燥質量 530.00 kg
総質量 575.00 kg
長さ 0.30 m
直径 4.10 m
スパン 29.00 m
形状 Box + pan
製造者 SPXS
バスタイプ Starlink V2MO
フェーズステータス In Orbit
所有者/国 SPXS/US

Most Searched